Location: Arboyeti
(42.1122°N, 44.6017°E)
Time: 03:13:17
(UTC+00:00)

X-37B - Pass Details

Date: 30 September 2021
Orbit: 385 x 389 km, 45.0° (Epoch: 17 October)

Event Time Altitude Azimuth Distance (km) Brightness Sun altitude
Exits shadow 02:07:05 13° 291° (WNW) 1,230 2.6 -10.2°
Maximum altitude 02:09:48 76° 16° (NNE) 403 0.7 -9.7°
Drops below altitude 10° 02:12:59 10° 103° (ESE) 1,412 4.8 -9.1°
Sets 02:15:03 0° 105° (ESE) 2,265 6.1 -8.7°
